Terminal Aerodrome Forecast
Issued by NWS Twin Cities, MN

Home | Current Version | Previous Version | Graphics & Text | Print | Product List | Glossary On
Versions: 1 2 3 4 5 6 7 8 9 10 11 12 13 14 15 16 17 18 19 20 21 22 23 24 25 26 27 28 29 30
000
FTUS43 KMPX 060520
TAFMSP
TAF
KMSP 060520Z 0606/0712 12010KT 6SM BR VCSH OVC008
     FM060800 12011KT 5SM BR VCSH OVC007
     FM061400 12012G19KT 6SM BR OVC015
     FM061700 15016G25KT P6SM SCT020 BKN035
     FM062300 15015G24KT P6SM -RA VCTS SCT020 OVC030CB=

USA.gov is the U.S. government's official web portal to all federal, state and local government web resources and services.